Tracking 19181 objects as of 18-Jun-2018
HD Live streaming from Space Station
objects crossing your sky now

COSMOS 2448 (GLONASS)

Track COSMOS 2448 (GLONASS) now!
COSMOS 2448 (GLONASS) is classified as:


NORAD ID: 33468
Int'l Code: 2008-067C
Perigee: 19,119.1 km
Apogee: 19,152.7 km
Inclination: 64.0 °
Period: 675.7 minutes
Semi major axis: 25506 km
RCS: 3.1623 m2 (large)
Launch date: December 25, 2008
Source: Commonwealth of Independent States (former USSR) (CIS)
Launch site: TYURATAM MISSILE AND SPACE COMPLEX (TTMTR)
SV:

This is satellite part of Glonass family.
aabbcc
Your satellite tracking list
Your tracking list is empty




NASA's NSSDC Master Catalog

Two Line Element Set (TLE):
1 33468U 08067C   18168.20659194 +.00000071 +00000-0 +00000-0 0  9993
2 33468 063.9524 170.2895 0006599 290.3792 069.5618 02.13116302073765
Source of the keplerian elements: AFSPC